TimeMST,TemperatureF,Dew PointF,Humidity,Sea Level PressureIn,VisibilityMPH,Wind Direction,Wind SpeedMPH,Gust SpeedMPH,PrecipitationIn,Events,Conditions,WindDirDegrees,DateUTC
12:15 AM,23.0,19.4,86,30.30,10.0,Calm,Calm,-,N/A,,Overcast,0,2013-02-13 07:15:00
12:35 AM,23.0,19.4,86,30.30,7.0,Calm,Calm,-,N/A,Snow,Light Snow,0,2013-02-13 07:35:00
12:55 AM,23.0,19.4,86,30.30,10.0,Calm,Calm,-,N/A,,Overcast,0,2013-02-13 07:55:00
1:15 AM,23.0,19.4,86,30.30,10.0,SE,3.5,-,N/A,,Overcast,130,2013-02-13 08:15:00
1:35 AM,23.0,19.4,86,30.30,10.0,Calm,Calm,-,N/A,,Overcast,0,2013-02-13 08:35:00
1:55 AM,23.0,19.4,86,30.30,10.0,Calm,Calm,-,N/A,,Overcast,0,2013-02-13 08:55:00
2:15 AM,23.0,19.4,86,30.30,10.0,Calm,Calm,-,N/A,,Overcast,0,2013-02-13 09:15:00
2:35 AM,23.0,19.4,86,30.29,10.0,Calm,Calm,-,N/A,,Overcast,0,2013-02-13 09:35:00
2:55 AM,23.0,19.4,86,30.29,10.0,Calm,Calm,-,N/A,,Overcast,0,2013-02-13 09:55:00
3:15 AM,23.0,19.4,86,30.28,10.0,Calm,Calm,-,N/A,,Overcast,0,2013-02-13 10:15:00
3:35 AM,23.0,19.4,86,30.29,10.0,Calm,Calm,-,N/A,,Overcast,0,2013-02-13 10:35:00
3:55 AM,23.0,19.4,86,30.29,10.0,Calm,Calm,-,N/A,,Overcast,0,2013-02-13 10:55:00
4:15 AM,23.0,19.4,86,30.27,10.0,Calm,Calm,-,N/A,,Overcast,0,2013-02-13 11:15:00
4:35 AM,23.0,19.4,86,30.27,10.0,Calm,Calm,-,N/A,,Overcast,0,2013-02-13 11:35:00
4:55 AM,21.2,17.6,86,30.26,10.0,Calm,Calm,-,N/A,,Mostly Cloudy,0,2013-02-13 11:55:00
5:15 AM,17.6,14.0,86,30.26,10.0,West,3.5,-,N/A,,Scattered Clouds,260,2013-02-13 12:15:00
5:35 AM,17.6,14.0,86,30.26,10.0,Calm,Calm,-,N/A,,Clear,0,2013-02-13 12:35:00
5:55 AM,14.0,12.2,93,30.26,7.0,ESE,5.8,-,N/A,,Clear,110,2013-02-13 12:55:00
6:15 AM,14.0,12.2,93,30.27,7.0,Calm,Calm,-,N/A,,Scattered Clouds,0,2013-02-13 13:15:00
6:35 AM,15.8,14.0,93,30.27,10.0,Calm,Calm,-,N/A,,Overcast,0,2013-02-13 13:35:00
6:55 AM,19.4,17.6,93,30.28,10.0,Calm,Calm,-,N/A,,Overcast,0,2013-02-13 13:55:00
7:15 AM,19.4,17.6,93,30.28,10.0,Calm,Calm,-,N/A,,Overcast,0,2013-02-13 14:15:00
7:35 AM,17.6,14.0,86,30.29,10.0,WSW,3.5,-,N/A,,Overcast,250,2013-02-13 14:35:00
7:55 AM,19.4,15.8,86,30.31,10.0,Calm,Calm,-,N/A,,Overcast,0,2013-02-13 14:55:00
8:15 AM,19.4,15.8,86,30.31,10.0,Calm,Calm,-,N/A,,Overcast,0,2013-02-13 15:15:00
8:35 AM,19.4,17.6,93,30.31,10.0,Calm,Calm,-,N/A,,Overcast,0,2013-02-13 15:35:00
8:55 AM,21.2,17.6,86,30.31,10.0,Calm,Calm,-,N/A,,Overcast,0,2013-02-13 15:55:00
9:15 AM,21.2,17.6,86,30.31,10.0,Calm,Calm,-,N/A,,Overcast,0,2013-02-13 16:15:00
9:35 AM,23.0,19.4,86,30.32,10.0,NE,3.5,-,N/A,,Overcast,40,2013-02-13 16:35:00
9:55 AM,24.8,19.4,80,30.31,7.0,ESE,4.6,-,N/A,,Overcast,110,2013-02-13 16:55:00
10:15 AM,26.6,19.4,74,30.32,10.0,Calm,Calm,-,N/A,,Overcast,0,2013-02-13 17:15:00
10:35 AM,26.6,19.4,74,30.32,10.0,Calm,Calm,-,N/A,,Overcast,0,2013-02-13 17:35:00
10:55 AM,28.4,19.4,69,30.30,10.0,Calm,Calm,-,N/A,,Overcast,0,2013-02-13 17:55:00
11:15 AM,28.4,19.4,69,30.30,10.0,Calm,Calm,-,N/A,,Overcast,0,2013-02-13 18:15:00
11:35 AM,28.4,19.4,69,30.30,10.0,Calm,Calm,-,N/A,,Mostly Cloudy,0,2013-02-13 18:35:00
11:55 AM,30.2,19.4,64,30.29,10.0,Calm,Calm,-,N/A,,Scattered Clouds,0,2013-02-13 18:55:00
12:15 PM,30.2,19.4,64,30.28,10.0,Calm,Calm,-,N/A,,Scattered Clouds,0,2013-02-13 19:15:00
12:35 PM,32.0,21.2,64,30.26,10.0,ESE,3.5,-,N/A,,Scattered Clouds,110,2013-02-13 19:35:00
12:55 PM,32.0,21.2,64,30.26,10.0,Calm,Calm,-,N/A,,Scattered Clouds,0,2013-02-13 19:55:00
1:15 PM,32.0,21.2,64,30.26,10.0,Calm,Calm,-,N/A,,Mostly Cloudy,0,2013-02-13 20:15:00
1:35 PM,32.0,21.2,64,30.25,10.0,Calm,Calm,-,N/A,,Mostly Cloudy,0,2013-02-13 20:35:00
1:55 PM,32.0,21.2,64,30.24,10.0,Calm,Calm,-,N/A,,Mostly Cloudy,0,2013-02-13 20:55:00
2:15 PM,33.8,21.2,60,30.22,10.0,Calm,Calm,-,N/A,,Mostly Cloudy,0,2013-02-13 21:15:00
2:35 PM,33.8,21.2,60,30.22,10.0,Calm,Calm,-,N/A,,Mostly Cloudy,0,2013-02-13 21:35:00
2:55 PM,35.6,21.2,56,30.22,10.0,Calm,Calm,-,N/A,,Mostly Cloudy,0,2013-02-13 21:55:00
3:15 PM,33.8,21.2,60,30.22,10.0,West,3.5,-,N/A,,Mostly Cloudy,260,2013-02-13 22:15:00
3:35 PM,33.8,23.0,65,30.21,10.0,Calm,Calm,-,N/A,,Scattered Clouds,0,2013-02-13 22:35:00
3:55 PM,37.4,23.0,56,30.21,10.0,WSW,4.6,-,N/A,,Clear,240,2013-02-13 22:55:00
4:15 PM,33.8,23.0,65,30.21,10.0,WSW,5.8,-,N/A,,Clear,250,2013-02-13 23:15:00
4:35 PM,33.8,23.0,65,30.20,10.0,SW,9.2,-,N/A,,Clear,230,2013-02-13 23:35:00
4:55 PM,33.8,23.0,65,30.20,10.0,WSW,10.4,-,N/A,,Clear,240,2013-02-13 23:55:00
5:15 PM,33.8,23.0,65,30.20,10.0,WSW,11.5,-,N/A,,Clear,240,2013-02-14 00:15:00
5:35 PM,32.0,23.0,69,30.19,10.0,WSW,10.4,-,N/A,,Clear,240,2013-02-14 00:35:00
5:55 PM,32.0,23.0,69,30.19,10.0,SW,8.1,-,N/A,,Scattered Clouds,230,2013-02-14 00:55:00
6:15 PM,30.2,21.2,69,30.20,10.0,WSW,10.4,-,N/A,,Scattered Clouds,240,2013-02-14 01:15:00
6:35 PM,30.2,21.2,69,30.21,10.0,SW,9.2,-,N/A,,Mostly Cloudy,230,2013-02-14 01:35:00
6:55 PM,30.2,21.2,69,30.21,10.0,Calm,Calm,-,N/A,,Scattered Clouds,0,2013-02-14 01:55:00
7:15 PM,28.4,21.2,74,30.20,10.0,Calm,Calm,-,N/A,,Scattered Clouds,0,2013-02-14 02:15:00
7:35 PM,30.2,21.2,69,30.21,10.0,SW,6.9,-,N/A,,Scattered Clouds,230,2013-02-14 02:35:00
7:55 PM,30.2,21.2,69,30.22,10.0,Calm,Calm,-,N/A,,Overcast,0,2013-02-14 02:55:00
8:15 PM,30.2,21.2,69,30.21,10.0,WSW,5.8,-,N/A,,Overcast,240,2013-02-14 03:15:00
8:35 PM,30.2,21.2,69,30.21,10.0,Calm,Calm,-,N/A,,Mostly Cloudy,0,2013-02-14 03:35:00
8:55 PM,28.4,21.2,74,30.22,10.0,Calm,Calm,-,N/A,,Scattered Clouds,0,2013-02-14 03:55:00
9:15 PM,28.4,21.2,74,30.22,10.0,Calm,Calm,-,N/A,,Clear,0,2013-02-14 04:15:00
9:35 PM,26.6,21.2,80,30.22,10.0,Calm,Calm,-,N/A,,Clear,0,2013-02-14 04:35:00
9:55 PM,26.6,21.2,80,30.22,10.0,Calm,Calm,-,N/A,,Scattered Clouds,0,2013-02-14 04:55:00
10:15 PM,26.6,21.2,80,30.22,10.0,Calm,Calm,-,N/A,,Scattered Clouds,0,2013-02-14 05:15:00
10:35 PM,21.2,17.6,86,30.22,10.0,Calm,Calm,-,N/A,,Clear,0,2013-02-14 05:35:00
10:55 PM,21.2,17.6,86,30.22,10.0,Calm,Calm,-,N/A,,Clear,0,2013-02-14 05:55:00
11:15 PM,21.2,17.6,86,30.22,10.0,Calm,Calm,-,N/A,,Scattered Clouds,0,2013-02-14 06:15:00
11:35 PM,21.2,19.4,93,30.22,10.0,Calm,Calm,-,N/A,,Clear,0,2013-02-14 06:35:00